Location: Regensburg
(48.4565°N, 10.3217°E)
Time: 20:16:14
(UTC+01:00)

ISS - Pass Details

Date: 08 January 2018
Orbit: 401 x 407 km, 51.6° (Epoch: 17 January)

Event Time Altitude Azimuth Distance (km) Brightness Sun altitude
Exits shadow 06:40:09 28° 303° (WNW) 793 -2.9 -14.1°
Maximum altitude 06:41:39 60° 14° (NNE) 470 -3.6 -13.9°
Drops below altitude 10° 06:44:54 10° 96° (E) 1,466 0.3 -13.4°
Sets 06:47:00 0° 100° (E) 2,326 1.9 -13.0°
